Juneau, WI

8:06 AM CST on December 12, 2019 (GMT -0600)
Dodge County

Weather History for KUNU - October, 2019

Change the Weather History Date:

Thursday, October 24, 2019

  Actual Average Record
Temperature  
Mean Temperature 38 °F -  
Max Temperature 43 °F 54 °F 76 °F (1973)
Min Temperature 32 °F 39 °F 19 °F (1981)
Degree Days  
Heating Degree Days 28    
Moisture  
Dew Point 33 °F    
Average Humidity 80    
Maximum Humidity 99    
Minimum Humidity 62    
Precipitation  
Precipitation 0.00 in - - ()
Sea Level Pressure  
Sea Level Pressure 30.25 in    
Wind  
Wind Speed 1 mph ()    
Max Wind Speed 9 mph    
Max Gust Speed -    
Visibility 10.0 miles    
Events      
Averages and records for this station are not official NWS values.
T = Trace of Precipitation, MM = Missing Value Source: Averaged Metar Reports

Daily Weather History Graph

Daily Weather History Graph

Search for Another Location

Airport or City:

Astronomy

Oct. 24, 2019 Rise Set
Actual Time 7:19 AM CDT 5:57 PM CDT
Civil Twilight 6:50 AM CDT 6:26 PM CDT
Nautical Twilight 6:17 AM CDT 7:00 PM CDT
Astronomical Twilight 5:43 AM CDT 7:33 PM CDT
Moon 2:38 AM CDT (10/24) 4:34 PM CDT (10/24)
Length of Visible Light 11h 36m
Length of Day
10h 38m
Waning Crescent, 16% of the Moon is Illuminated
Oct 24
Waning Crescent
Oct 27
New
Nov 4
First Quarter
Nov 12
Full
Nov 19
Last Quarter

Hourly Weather History & Observations

Time (CDT) Temp. Windchill Dew Point Humidity Pressure Visibility Wind Dir Wind Speed Gust Speed Precip Events Conditions
12:15 AM 39.7 °F - 39.2 °F 98% 30.03 in 10.0 mi Calm Calm - N/A   Overcast
12:35 AM 39.4 °F - 39.0 °F 99% 30.04 in 10.0 mi Calm Calm - N/A   Overcast
12:55 AM 39.7 °F - 39.2 °F 98% 30.05 in 10.0 mi Calm Calm - N/A   Overcast
1:15 AM 40.1 °F - 39.2 °F 97% 30.06 in 10.0 mi Calm Calm - N/A   Overcast
1:35 AM 40.1 °F - 39.2 °F 97% 30.07 in 10.0 mi Calm Calm - N/A   Overcast
1:55 AM 40.1 °F - 39.2 °F 97% 30.07 in 10.0 mi Calm Calm - N/A   Overcast
2:35 AM 39.2 °F - 38.1 °F 96% 30.10 in 10.0 mi Calm Calm - N/A   Mostly Cloudy
2:55 AM 38.3 °F - 36.9 °F 95% 30.10 in 10.0 mi Calm Calm - N/A   Clear
3:15 AM 37.4 °F 34.9 °F 36.5 °F 97% 30.11 in 10.0 mi WNW 3.5 mph - N/A   Clear
3:55 AM 37.4 °F - 35.6 °F 93% 30.13 in 10.0 mi Calm Calm - N/A   Scattered Clouds
4:15 AM 36.1 °F - 34.7 °F 94% 30.14 in 10.0 mi Calm Calm - N/A   Mostly Cloudy
5:55 AM 34.5 °F - 33.8 °F 97% 30.19 in 10.0 mi Calm Calm - N/A   Clear
6:15 AM 34.0 °F - 33.3 °F 97% 30.19 in 10.0 mi Calm Calm - N/A   Clear
6:35 AM 33.8 °F - 33.1 °F 97% 30.20 in 10.0 mi Calm Calm - N/A   Clear
7:15 AM 33.8 °F - 32.9 °F 96% 30.22 in 10.0 mi Calm Calm - N/A   Clear
7:35 AM 33.3 °F - 32.4 °F 96% 30.23 in 10.0 mi Calm Calm - N/A   Clear
7:55 AM 32.9 °F - 32.2 °F 97% 30.24 in 10.0 mi Calm Calm - N/A   Clear
8:35 AM 35.1 °F 31.0 °F 32.9 °F 92% 30.25 in 10.0 mi WNW 4.6 mph - N/A   Clear
8:55 AM 35.6 °F 31.7 °F 32.9 °F 90% 30.26 in 10.0 mi WNW 4.6 mph - N/A   Clear
9:15 AM 36.9 °F 34.3 °F 33.6 °F 88% 30.27 in 10.0 mi WNW 3.5 mph - N/A   Clear
9:35 AM 37.8 °F 32.5 °F 33.4 °F 84% 30.28 in 10.0 mi NW 6.9 mph - N/A   Clear
9:55 AM 39.4 °F 35.2 °F 34.0 °F 81% 30.28 in 10.0 mi WNW 5.8 mph - N/A   Clear
10:15 AM 40.1 °F 34.7 °F 33.1 °F 76% 30.29 in 10.0 mi WNW 8.1 mph - N/A   Clear
10:55 AM 41.5 °F 36.4 °F 32.2 °F 69% 30.30 in 10.0 mi WNW 8.1 mph - N/A   Clear
11:15 AM 42.1 °F 37.1 °F 32.2 °F 68% 30.30 in 10.0 mi NW 8.1 mph - N/A   Scattered Clouds
11:55 AM 43.3 °F 38.1 °F 31.5 °F 63% 30.32 in 10.0 mi West 9.2 mph - N/A   Mostly Cloudy
12:15 PM 42.3 °F 40.5 °F 30.9 °F 64% 30.31 in 10.0 mi West 3.5 mph - N/A   Mostly Cloudy
12:55 PM 43.0 °F 39.5 °F 31.6 °F 64% 30.31 in 10.0 mi West 5.8 mph - N/A   Overcast
1:15 PM 42.4 °F 38.1 °F 31.3 °F 65% 30.31 in 10.0 mi West 6.9 mph - N/A   Overcast
1:35 PM 42.1 °F 38.4 °F 31.1 °F 65% 30.31 in 10.0 mi WNW 5.8 mph - N/A   Overcast
1:55 PM 42.3 °F 40.5 °F 30.7 °F 64% 30.30 in 10.0 mi WNW 3.5 mph - N/A   Overcast
2:15 PM 42.4 °F 38.8 °F 31.3 °F 65% 30.29 in 10.0 mi WNW 5.8 mph - N/A   Overcast
2:35 PM 42.3 °F 38.6 °F 31.8 °F 67% 30.30 in 10.0 mi WNW 5.8 mph - N/A   Overcast
2:55 PM 42.3 °F 39.4 °F 32.0 °F 67% 30.30 in 10.0 mi NW 4.6 mph - N/A   Overcast
3:15 PM 42.4 °F - 31.6 °F 66% 30.30 in 10.0 mi Calm Calm - N/A   Overcast
3:35 PM 42.1 °F - 31.5 °F 66% 30.31 in 10.0 mi Calm Calm - N/A   Overcast
4:15 PM 42.3 °F - 31.1 °F 65% 30.31 in 10.0 mi Calm Calm - N/A   Overcast
4:35 PM 42.3 °F - 30.7 °F 64% 30.31 in 10.0 mi Calm Calm - N/A   Overcast
4:55 PM 42.3 °F - 30.7 °F 64% 30.32 in 10.0 mi Calm Calm - N/A   Overcast
5:35 PM 41.9 °F - 30.0 °F 63% 30.31 in 10.0 mi Calm Calm - N/A   Overcast
5:55 PM 41.9 °F - 29.8 °F 62% 30.32 in 10.0 mi Calm Calm - N/A   Overcast
6:15 PM 41.5 °F - 30.6 °F 65% 30.31 in 10.0 mi Calm Calm - N/A   Overcast
6:35 PM 41.0 °F - 32.2 °F 71% 30.32 in 10.0 mi Calm Calm - N/A   Overcast
6:55 PM 41.0 °F - 32.0 °F 70% 30.32 in 10.0 mi Calm Calm - N/A   Overcast
7:15 PM 40.8 °F - 32.2 °F 71% 30.33 in 10.0 mi Calm Calm - N/A   Overcast
7:35 PM 41.0 °F - 32.2 °F 71% 30.33 in 10.0 mi Calm Calm - N/A   Overcast
7:55 PM - - - N/A% 30.34 in 10.0 mi Calm Calm - N/A   Overcast
8:15 PM 40.1 °F - 33.1 °F 76% 30.33 in 10.0 mi Calm Calm - N/A   Overcast
8:35 PM 39.2 °F - 32.9 °F 78% 30.35 in 10.0 mi Calm Calm - N/A   Overcast
8:55 PM 39.4 °F - 32.9 °F 78% 30.35 in 10.0 mi Calm Calm - N/A   Overcast
9:15 PM 39.2 °F - 32.9 °F 78% 30.35 in 10.0 mi Calm Calm - N/A   Overcast
9:35 PM 38.7 °F - 32.7 °F 79% 30.35 in 10.0 mi Calm Calm - N/A   Mostly Cloudy
9:55 PM 37.8 °F - 32.9 °F 83% 30.36 in 10.0 mi Calm Calm - N/A   Scattered Clouds
11:55 PM 33.3 °F - 32.0 °F 95% 30.35 in 10.0 mi Calm Calm - N/A   Scattered Clouds